COSMOS 886 DEB, 9826

Orbit data source: Space-Track

COSMOS 886 DEB, 9826 is space debris in LEO originally from a launch on Mon, 27 Dec 1976 UTC launched from the Tyuratam Missile And Space Complex (TTMTR). Debris objects in space refer to the collection of defunct objects orbiting the Earth. Examples of debris include non-operational satellites, rocket bodies, and fragments generated from explosions, collisions, or faulty payload assembly.

Loading next visibility...
Identifier
9826, 1976-126AN
Orbit
LEO
Country
Flag of CISCIS
Related business
Manufacturer
Unknown
Mission
Spacecraft
Bus & Motor
Unknown
Mass
Unknown
Launch date (UTC)
1976-12-27 (49 years ago)
Launch vehicle
Unknown
Launch site
Tyuratam Missile And Space Complex (TTMTR)
Object type
Payload
Rocket body
Debris
Shape & HBR
Unknown shape, 0.1 m
Radar Cross Section
Medium (>0.1 m² and <1 m²)

Expand to show TLE details & history
Last TLE update: 1 day ago

TLE from 1 day ago
0 COSMOS 886 DEB
1 09826U 76126AN  26174.52156211  .00001226  00000-0  36507-3 0  9995
2 09826  65.8398 256.7890 0742771 289.4094  62.8164 13.48413668363235
Epoch: 2026-06-23T12:31Z
TLE epoch observation values (Epoch: 2026-06-23T12:31:02.966Z)
Latitude
-0°
Longitude
157.33471°
Altitude
861.232 km
Speed
7.53 km/s
True Right ascension
17h 07m 09s
True Declination
0° 00' 00"
Sunlit
Object was in full shadow at epoch
Visualization orbit readout
Latitude
Unknown
Longitude
Unknown
Altitude
Unknown
Speed
Unknown
Apparent Right ascension
Unknown
Apparent Declination
Unknown
Sunlit
N/A
Visualization observer readout
Local Sidereal Time
03:12:12
Azimuth
Unknown
Elevation
Unknown
Doppler factor
Unknown
Orbital elements
Apogee altitude
1,630.342 km
Perigee altitude
522.906 km
Semi-major axis
7,454.761 km
Eccentricity
0.07428
Inclination
65.8398°
RAAN
256.789°
Arg. of periapsis
289.4094°
True anomaly
70.6975°
Mean anomaly
62.8164°
Eccentric anomaly
66.72585°
Mean motion
3.37204 °/min
Orbital period
106.76 mins
BSTAR
0.00036507
Loading maneuver chart data...
Computing Atmospheric mass density...

Documentation

Showing up to 5 results
|